Cloud_Cover
94 5 5 49 57 5 100 100 75 88 71 5 22 0 12 0 0 0 2 0 0 0 0 0 0 0 0 0 2 0 0 0 0 0 0 0 0 0 3 30 46 24 18
7 2 0 7 65 0 6 100 100 99 98 50 70 22 20 0 0 0 0 0 1 0 14 1 0 0 0 8 11 32 0 0 0 0 0 0 0 0 0 0 0 0 0
0 5 0 0 44 7 8 86 100 100 100 92 90 100 100 0 0 2 2 2 20 2 0 3 7 0 0 3 16 8 0 0 0 0 0 0 0 0 0 12 6 45 44
0 2 0 0 2 91 92 100 100 100 100 100 13 19 42 0 17 19 24 37 3 0 0 0 8 0 0 0 0 0 0 0 19 5 31 4 0 93 32 29 79 76 67
0 22 5 0 1 41 8 100 100 100 100 100 100 8 5 9 8 34 24 12 0 0 0 3 7 0 0 0 0 0 0 0 60 100 100 7 0 70 99 93 54 83 33
0 0 99 17 0 0 5 4 100 100 100 100 100 100 68 11 37 100 60 0 0 0 5 6 0 0 0 0 0 0 0 0 0 6 0 0 0 100 100 74 17 20 25
0 0 3 0 0 0 1 2 49 100 100 100 100 100 100 81 100 100 26 5 5 5 5 5 5 0 0 0 0 0 0 0 83 90 7 4 33 95 100 68 2 6 12
0 0 0 4 0 0 0 5 2 40 100 100 100 100 100 62 100 100 55 5 5 5 53 5 4 0 0 14 6 0 0 28 91 100 96 77 100 100 73 2 59 96 2
0 0 1 24 4 0 0 5 5 4 99 100 100 100 100 100 100 100 54 5 7 43 100 5 5 0 2 1 0 0 0 72 27 92 99 18 14 100 24 98 34 3 0
0 0 0 10 32 12 52 29 8 5 100 100 100 100 100 100 100 100 38 5 5 100 100 7 5 67 5 0 0 0 91 100 91 100 96 24 0 1 8 3 0 1 42
0 0 0 0 13 22 50 5 48 5 44 100 100 100 100 100 100 100 95 6 5 60 99 100 99 74 22 5 1 19 100 100 100 76 14 39 2 0 0 29 0 0 85
0 0 0 0 0 13 38 79 55 80 5 100 100 100 100 100 100 100 94 98 98 97 100 72 97 100 100 87 84 100 100 100 98 100 93 0 11 0 94 0 0 16 54
0 0 0 0 21 8 46 100 38 100 42 74 100 100 100 100 100 100 37 78 100 100 100 97 100 100 100 81 100 100 100 100 98 21 100 82 3 0 16 17 28 100 96
0 0 0 0 6 22 68 100 100 93 98 75 100 100 100 100 100 100 99 100 100 100 100 100 100 100 100 100 100 100 100 100 5 1 83 99 64 25 4 92 94 21 1
0 0 0 6 13 18 28 91 100 100 96 36 100 100 100 100 100 100 87 100 100 100 100 100 100 100 100 72 99 100 100 18 5 0 20 98 100 52 2 75 100 100 100
0 0 0 2 25 1 22 98 100 100 100 97 100 79 100 100 100 89 44 100 100 100 100 99 100 100 98 78 42 5 58 1 5 5 21 92 100 100 100 52 14 5 16
0 0 0 57 64 8 10 88 100 100 100 100 100 100 100 100 100 61 92 73 100 100 100 80 100 100 100 100 17 5 5 14 69 84 41 94 100 100 35 17 5 33 4
0 0 0 60 100 21 27 84 100 100 100 100 100 100 83 100 100 100 90 60 100 100 100 52 90 98 100 100 55 66 98 100 100 100 100 100 100 99 100 93 12 40 9
0 0 0 100 79 54 74 91 100 100 100 100 100 100 100 100 100 100 100 52 100 100 100 67 51 42 67 100 100 100 100 100 100 100 100 100 100 100 100 99 41 6 5
1 82 0 17 63 54 90 100 100 100 100 100 100 100 100 99 96 97 100 100 98 100 100 100 100 100 100 100 100 100 100 100 100 100 100 100 100 100 100 100 100 19 80
100 99 77 100 100 96 100 100 100 100 100 100 100 100 100 100 69 10 100 100 100 100 100 100 100 100 100 100 100 100 100 100 100 100 100 100 100 100 100 100 100 76 100
24 74 98 78 100 93 66 100 100 100 100 100 100 95 100 100 100 98 100 100 100 100 100 100 100 100 100 100 100 100 100 100 100 100 100 99 100 100 100 100 100 58 46
98 100 100 83 100 100 100 100 100 100 100 100 100 100 100 100 100 100 100 100 100 100 100 100 100 100 100 100 100 100 100 100 100 100 100 100 100 100 100 100 100 100 75
100 100 100 100 100 100 100 100 100 100 100 100 100 100 100 100 100 100 100 100 100 100 100 100 100 100 100 100 100 100 100 100 100 100 100 88 100 100 100 100 96 12 37
92 100 100 100 100 100 100 100 100 100 100 100 100 100 100 100 100 100 100 100 100 100 100 100 100 100 100 100 100 100 100 100 100 100 100 100 100 100 87 100 100 55 23
83 100 100 100 100 100 100 100 100 100 100 100 100 100 100 100 100 100 100 100 100 100 100 100 100 100 100 100 100 100 100 100 100 100 100 100 95 38 43 61 86 35 52